Home > Weather > Riverside > Past weeks

Flag for USA Weather for the Past 2 Weeks in Riverside, California, USA

Now
76 °F

Sunny.


Feels Like: 78 °F
Forecast: 53 / 83 °F
Wind: 7 mph from North

Location: Riverside Municipal Airport

Current Time: May 1, 2016 at 5:09:32 PM

Latest Report: May 1, 2016 at 3:53 PM


Visibility: 10 mi

Pressure: 29.85 "Hg

Humidity: 40%

Dew Point: 50 °F

Location of RiversideLocation

Historic Weather in Riverside — Graph

°F

Riverside Temperature Yesterday

Maximum temperature yesterday: 68 °F (at 2:53 PM)
Minimum temperature yesterday: 54 °F (at 7:53 AM)
Average temperature yesterday: 60 °F

High & Low Weather Summary for the Past Weeks

 TemperatureHumidityPressure
High92 °F (Apr 18, 2:53 PM)90% (Apr 30, 5:53 AM)30.04 "Hg (Apr 30, 5:53 AM)
Low47 °F (Apr 26, 4:53 AM)5% (Apr 16, 5:53 PM)29.70 "Hg (Apr 27, 11:53 PM)
Average66 °F44%29.88 "Hg
* Reported Apr 16 2:53 PM — May 1 2:53 PM, Riverside, Weather by CustomWeather, © 2016

Note: Actual official high and low records may vary slightly from our data, if they occured in-between our weather recording intervals... More about our weather records

Advertising

Riverside Weather History for the Previous 24 Hours

Scroll right to see more
 ConditionsComfort  
Time TempWeatherWind HumidityBarometerVisibility
2:53 PM
Sun, May 1
77 °FSunny.9 mph37%29.85 "Hg10 mi
1:53 PM75 °FSunny.10 mph39%29.85 "Hg10 mi
12:53 PM73 °FScattered clouds.6 mph38%29.86 "Hg10 mi
11:53 AM68 °FSunny.6 mph45%29.88 "Hg10 mi
10:53 AM66 °FSunny.3 mph50%29.89 "Hg10 mi
9:53 AM64 °FSunny.3 mph56%29.89 "Hg10 mi
8:53 AM60 °FSunny.No wind65%29.88 "Hg10 mi
7:53 AM58 °FSunny.No wind70%29.88 "Hg10 mi
6:53 AM54 °FClear.No wind80%29.87 "Hg10 mi
5:53 AM53 °FClear.No wind83%29.83 "Hg10 mi
4:53 AM52 °FPassing clouds.No wind83%29.83 "Hg10 mi
3:53 AM53 °FPassing clouds.No wind80%29.82 "Hg10 mi
2:53 AM54 °FClear.No wind77%29.81 "Hg10 mi
1:53 AM56 °FClear.No wind70%29.82 "Hg10 mi
12:53 AM57 °FClear.No wind64%29.82 "Hg10 mi
11:53 PM
Sat, Apr 30
58 °FOvercast.No wind62%29.82 "Hg10 mi
10:53 PM59 °FClear.No wind58%29.81 "Hg10 mi
9:53 PM61 °FClear.3 mph54%29.81 "Hg10 mi
8:53 PM62 °FPassing clouds.5 mph54%29.79 "Hg10 mi
7:53 PM63 °FPartly sunny.9 mph52%29.75 "Hg10 mi
6:53 PM66 °FOvercast.12 mph49%29.74 "Hg10 mi
5:53 PM68 °FPassing clouds.12 mph47%29.72 "Hg10 mi
Weather by CustomWeather, © 2016

See weather overviewHow to use our weather pages